Regional Weather Roundup
Issued by NWS

Home | Current Version | Previous Version | Graphics & Text | Print | Product List | Glossary On
Versions: 1 2 3 4 5 6 7 8 9 10 11 12 13 14 15 16 17 18 19 20 21 22 23 24 25 26 27 28 29 30 31 32 33 34 35 36 37 38 39 40 41 42 43 44 45 46 47 48 49 50
000
ASUS43 KLOT 252206
RWRIL

ILLINOIS REGIONAL WEATHER ROUNDUP
NATIONAL WEATHER SERVICE CHICAGO/ROMEOVILLE IL
400 PM CST TUE NOV 25 2014

NOTE: "FAIR" INDICATES FEW OR NO CLOUDS BELOW 12,000 FEET WITH NO
SIGNIFICANT WEATHER AND/OR OBSTRUCTIONS TO VISIBILITY.

* THESE STATIONS ARE NOT UNDER NWS QUALITY CONTROL. THEY ALSO MAY NOT
  REPORT WEATHER SUCH AS PRECIPITATION OR FOG.

ILZ001-002-007-009-015-016-024-252300-
NORTHWEST ILLINOIS

CITY           SKY/WX    TMP DP  RH WIND       PRES   REMARKS
MOLINE         CLEAR     25  17  72 SW7       30.15S WCI  17
STERLING*      CLEAR     23  14  68 W3        30.15F
SAVANNA*       CLEAR     24  16  72 SW5       30.16R WCI  18
$$

ILZ003-004-008-010-011-017-018-252300-
NORTH CENTRAL ILLINOIS

CITY           SKY/WX    TMP DP  RH WIND       PRES   REMARKS
ROCKFORD       PTCLDY    21  13  71 SW7       30.17R WCI  12
FREEPORT*      CLEAR     20  14  79 SW8       30.16R WCI  10
ROCHELLE*      MOCLDY    19  16  86 SW8       30.16S WCI   9
DE KALB*       MOCLDY    19  14  80 W9        30.15S WCI   8
PERU*          CLOUDY    25  19  80 W6        30.17S WCI  18
$$

ILZ005-006-012>014-019>023-252300-
NORTHEAST ILLINOIS

CITY           SKY/WX    TMP DP  RH WIND       PRES   REMARKS
CHICAGO-OHARE  PTCLDY    23  16  74 W12       30.13S WCI  12
CHICAGO-MIDWAY MOCLDY    25  17  72 SW10      30.15S WCI  15
AURORA         MOCLDY    22  15  75 W14       30.15S WCI   9
LANSING*       CLOUDY    25  18  74 W9G16     30.16R WCI  15
JOLIET*        MOCLDY    24  17  75 W6        30.16S WCI  16
WAUKEGAN       PTCLDY    24  15  68 VRB6      30.12R WCI  17
DUPAGE AIRPORT MOCLDY    22  16  78 W13       30.14S WCI  10
KANKAKEE*      CLOUDY   N/A N/A N/A SW7       30.17R
WHEELING       PTCLDY    25  15  66 W8        30.15S WCI  16
MORRIS*        CLOUDY    24  19  83 W8        30.16R WCI  15
ROMEOVILLE*    MOCLDY    23  17  78 W9        30.15F WCI  13
NORTHERLY ISL    N/A     26  18  71 SW9         N/A  WCI  17
$$

LMZ740>746-252300-
SOUTHERN LAKE MICHIGAN

STATION/POSITION SKY/WX   TEMP    WIND        PRES    VSBY  WAVE
                          AIR SEA DIR/SP/G                  HT/PER
                          (F)     (DEG/KT/KT) (MB)    (MI)  (FT/S)
SOUTHERN BUOY              29 42  250/ 12/ 16 1020.9R         3/ 6
WAUKEGAN HARBOR            26     260/  9/ 14   N/A
HARRISON CRIB              26     250/ 12/ 15   N/A
BURNHAM HARBOR             26     280/  8/ 14   N/A
CALUMET HARBOR             24     260/  8/ 13 1019.7R
MICHIGAN CITY              26     190/ 11/ 12   N/A
$$

ILZ025>027-034>036-040-047-049-050-058-095>099-252300-
WEST-CENTRAL ILLINOIS

CITY           SKY/WX    TMP DP  RH WIND       PRES   REMARKS
QUINCY         CLEAR     34  19  54 W5        30.13S WCI  30
GALESBURG*     PTCLDY    27  21  78 SW3       30.15S
MACOMB*        CLEAR     32  25  76 W7        30.17S WCI  25
JACKSONVILLE*  CLEAR     37  25  63 W9        30.15R WCI  30
PITTSFIELD*    CLEAR     37  22  56 W5        30.15R WCI  33
$$

ILZ028>032-037-038-041>044-048-051>054-059>061-252300-
CENTRAL ILLINOIS

CITY           SKY/WX    TMP DP  RH WIND       PRES   REMARKS
PONTIAC        CLOUDY    26  22  85 W8        30.17R WCI  17
BLOOMINGTON    CLOUDY    27  22  81 SW10      30.15S WCI  17
DECATUR        PTCLDY    31  22  69 SW5       30.15S WCI  26
PEORIA         PTCLDY    29  20  69 NW5       30.15S WCI  24
LACON*         MOCLDY    26  19  74 W6        30.16S WCI  19
LINCOLN*       MOCLDY    32  24  71 W3        30.17R
SPRINGFIELD    PTCLDY    34  25  69 W5        30.15S WCI  30
TAYLORVILLE    PTCLDY    32  27  80 W5        30.16R WCI  27
$$

ILZ033-039-045-046-055>057-062-063-252300-
EAST-CENTRAL ILLINOIS

CITY           SKY/WX    TMP DP  RH WIND       PRES   REMARKS
CHAMPAIGN      CLOUDY    27  21  78 NW8       30.15F WCI  19
DANVILLE*      CLOUDY    27  21  78 W7        30.14S WCI  19
RANTOUL*       CLOUDY    28  22  80 W10       30.16S WCI  18
MATTOON        CLOUDY    30  22  72 NW6       30.15S WCI  24
PARIS*         CLOUDY    29  25  82 CALM      30.18S
$$

ILZ079-100>102-252300-
SOUTHWEST ILLINOIS

CITY           SKY/WX    TMP DP  RH WIND       PRES   REMARKS
ALTON          CLEAR     37  25  60 W9        30.16R WCI  31
BELLEVILLE     CLEAR     40  23  51 W5        30.14F
CAHOKIA*       CLEAR     41  23  48 NW6       30.15S
SPARTA*        CLEAR     38  26  59 CALM      30.16S
$$

ILZ064>066-069>071-074>076-080>082-084>086-088>090-092>094-252300-
SOUTH-CENTRAL ILLINOIS

CITY           SKY/WX    TMP DP  RH WIND       PRES   REMARKS
CARBONDALE     CLEAR     40  24  53 NE5       30.16S
CAIRO*         CLEAR     45  27  49 SW3       30.16R
EFFINGHAM*     CLEAR     34  21  59 CALM      30.16F
MARION         PTCLDY    39  27  60 N6        30.17S WCI  35
MT. VERNON     PTCLDY    37  25  60 CALM      30.17R
CENTRALIA*     CLEAR     35  26  69 NW5       30.16S WCI  31
SALEM*           N/A     37  26  65 CALM      30.16S
METROPOLIS*    PTCLDY    42  28  55 CALM        N/A
$$

ILZ067-068-072-073-078-083-087-091-252300-
SOUTHEAST ILLINOIS

CITY           SKY/WX    TMP DP  RH WIND       PRES   REMARKS
LAWRENCEVILLE  CLOUDY    32  25  75 N7        30.19S WCI  26
FLORA*         PTCLDY    33  25  75 CALM      30.18S
FAIRFIELD*     MOCLDY    35  26  70 NE5       30.17R WCI  30
HARRISBURG*    CLEAR     37  28  67 N5        30.18R WCI  34
ROBINSON*      CLOUDY    31  25  76 CALM      30.19S
CARMI*         PTCLDY    37  30  76 NW5       30.17S WCI  33
$$

ABBREVIATIONS USED IN REMARKS
   TC - TEMPERATURE IN CELSIUS
  WCI - WIND CHILL INDEX
   HX - HEAT INDEX
  VSB - VISIBILITY
$$




USA.gov is the U.S. government's official web portal to all federal, state and local government web resources and services.